Location: Pensacola
(30.4142°N, 87.2155°W)
Time: 04:02:30
(UTC-05:00)

Hubble Space Telescope - Pass Details

Date: 10 February 2023
Orbit: 526 x 530 km, 28.5° (Epoch: 01 April)

Event Time Altitude Azimuth Distance (km) Brightness Sun altitude
Rises 19:00:03 0° 225° (SW) 2,641 5.1 -19.2°
Reaches altitude 10° 19:02:40 10° 209° (SSW) 1,753 3.8 -19.8°
Enters shadow 19:05:42 22° 161° (SSE) 1,183 2.3 -20.5°
